Weather in Mentese

Turkey     37°25′15″N   28°25′58″E
temp.,
°C
wind,
m/s
gust,
m/s
humid.,
%
clouds,
%
prec.,
mm/h
press.,
hPa
HPBL,
m
20 april, tue
tue2000:00+11sw2271100 0.0 101227
03:00+8w22695 0.0 101222
06:00+7wsw22500 0.0 101313
09:00+13wnw12410 0.0 1013769
12:00+17wnw46280 0.0 10131924
15:00+18w67261 0.0 10122336
18:00+15w55339 0.0 10131766
21:00+9w226259 0.0 101530
21 april, wed
wed2100:00+8w117534 0.0 101711
03:00+7wnw11830 0.0 101710
06:00+5wsw11876 0.0 101810
09:00+11ne11600 0.0 1018442
12:00+16nne2231100 0.0 10161723
15:00+18wnw442592 0.0 10152626
18:00+17wnw54324 0.0 10161914
21:00+10w22600 0.0 101926
22 april, thu
thu2200:00+8w21611 0.0 102010
03:00+7nw116196 0.0 102010
06:00+6wnw1165100 0.0 102110
09:00+12ne11520 0.0 1021423
12:00+17nne22320 0.0 10201403
15:00+19n33220 0.0 10191962
18:00+18n3224100 0.0 10181294
21:00+12w22390 0.0 102012
23 april, fri
fri2300:00+10w114589 0.0 102010
03:00+10sw11487 0.0 101910
06:00+9sw0049100 0.0 101910
09:00+15e11355 0.0 1019301
12:00+22n13215 0.0 10181482
15:00+23nw452412 0.0 10172005
18:00+21nw3331100 0.0 10171143
21:00+15nw2251100 0.0 101911
24 april, sat
sat2400:00+14w1153100 0.0 101911
03:00+13w1155100 0.0 101810
06:00+12sw0058100 0.0 101710
09:00+17ese2244100 0.0 1016266
12:00+22ne2231100 0.0 1015944
15:00+25n2427100 0.0 10132032
18:00+21nw3440100 0.0 1013334
21:00+18nnw2248100 0.0 101322